Preview of NWS' New Version of Forecast
This preview is not operational and should not be used for support decisions.

Regional Weather Roundup (RWR)

Issued by National Weather Service (NWS)

                            
000
ASCA42 TJSJ 230710
RWRPR 
PUERTO RICO/U.S. VIRGIN ISLANDS HOURLY WEATHER ROUNDUP
NATIONAL WEATHER SERVICE SAN JUAN PR
300 AM AST THU MAY 23 2019

PRZ001>002-007>008-010-230800-
PUERTO RICO
  
CITY           SKY/WX    TMP DP  RH WIND       PRES   REMARKS
SAN JUAN LMM   PTCLDY    79  72  78 E5        29.94F                  
$$

VIZ001>002-230800-
U.S. VIRGIN ISLANDS
  
CITY           SKY/WX    TMP DP  RH WIND       PRES   REMARKS
CHARLOTTE AMA  CLEAR     81  72  74 E8        29.94S                  
CHRISTIANSTED  PTCLDY    77  73  88 NE5       29.94F                  
$$

HOURLY WEATHER ROUNDUP FOR THE NEWS MEDIA
  
CITY           SKY/WX    TMP DP  RH WIND       PRES   REMARKS
ORLANDO        FAIR      73  66  78 E8        30.14F                  
NEW YORK       CLOUDY    59  50  72 SW7       30.19F                  
NEWARK         MOCLDY    63  45  51 SW9       30.17F                  
CHICAGO        TSTM      70  66  87 SW10      29.84R                  
HARTFORD       MOCLDY    50  44  80 S3        30.26F                  
BOSTON         CLOUDY    55  43  63 S8        30.27R                  
DALLAS         CLOUDY    80  73  79 S13G20    29.87S                  
PHILADELPHIA   MOCLDY    62  48  60 S8        30.20F                  
LOS ANGELES    PTCLDY    57  49  74 E9        29.82S                  
WASHINGTON DC  FAIR      60  48  64 S6        30.19F